TimeEDT,TemperatureF,Dew PointF,Humidity,Sea Level PressureIn,VisibilityMPH,Wind Direction,Wind SpeedMPH,Gust SpeedMPH,PrecipitationIn,Events,Conditions,WindDirDegrees,DateUTC
12:53 AM,59.0,55.0,87,30.08,10.0,North,3.5,-,0.05,,Overcast,350,2013-10-12 04:53:00
1:53 AM,57.9,55.9,93,30.09,10.0,Calm,Calm,-,0.04,,Overcast,0,2013-10-12 05:53:00
2:53 AM,55.9,55.0,97,30.08,10.0,Calm,Calm,-,0.03,,Overcast,0,2013-10-12 06:53:00
3:53 AM,55.9,54.0,93,30.09,10.0,Calm,Calm,-,0.03,,Mostly Cloudy,0,2013-10-12 07:53:00
4:53 AM,55.9,54.0,93,30.11,10.0,Calm,Calm,-,0.02,,Overcast,0,2013-10-12 08:53:00
5:53 AM,57.0,53.1,87,30.12,10.0,North,3.5,-,0.01,,Overcast,360,2013-10-12 09:53:00
6:53 AM,54.0,53.1,97,30.13,10.0,Calm,Calm,-,N/A,,Mostly Cloudy,0,2013-10-12 10:53:00
7:53 AM,55.9,53.1,90,30.14,10.0,North,3.5,-,N/A,,Overcast,350,2013-10-12 11:53:00
8:53 AM,57.9,53.1,84,30.16,10.0,NNW,3.5,-,N/A,,Overcast,330,2013-10-12 12:53:00
9:53 AM,63.0,48.9,60,30.17,10.0,North,3.5,-,N/A,,Overcast,10,2013-10-12 13:53:00
10:53 AM,64.0,45.0,50,30.18,10.0,NNE,4.6,-,N/A,,Overcast,30,2013-10-12 14:53:00
11:53 AM,66.0,43.0,43,30.19,10.0,NNE,3.5,-,N/A,,Overcast,30,2013-10-12 15:53:00
12:53 PM,69.1,42.1,38,30.17,10.0,Variable,3.5,-,N/A,,Overcast,0,2013-10-12 16:53:00
1:53 PM,71.1,39.0,31,30.15,10.0,Calm,Calm,-,N/A,,Scattered Clouds,0,2013-10-12 17:53:00
2:53 PM,73.9,37.0,26,30.13,10.0,Calm,Calm,-,N/A,,Partly Cloudy,0,2013-10-12 18:53:00
3:53 PM,75.9,39.9,27,30.13,10.0,Variable,4.6,-,N/A,,Clear,0,2013-10-12 19:53:00
4:53 PM,73.9,41.0,30,30.14,10.0,ESE,4.6,-,N/A,,Clear,110,2013-10-12 20:53:00
5:53 PM,70.0,43.0,38,30.16,10.0,SE,4.6,-,N/A,,Clear,130,2013-10-12 21:53:00
6:53 PM,55.9,51.1,84,30.19,10.0,Calm,Calm,-,N/A,,Clear,0,2013-10-12 22:53:00
7:53 PM,64.9,43.0,45,30.21,10.0,ESE,6.9,-,N/A,,Clear,110,2013-10-12 23:53:00
8:53 PM,55.9,50.0,80,30.22,10.0,Calm,Calm,-,N/A,,Overcast,0,2013-10-13 00:53:00
9:53 PM,54.0,51.1,90,30.22,10.0,Calm,Calm,-,N/A,,Mostly Cloudy,0,2013-10-13 01:53:00
10:53 PM,54.0,52.0,93,30.23,10.0,Calm,Calm,-,N/A,,Mostly Cloudy,0,2013-10-13 02:53:00
11:53 PM,55.9,51.1,84,30.24,10.0,Calm,Calm,-,N/A,,Overcast,0,2013-10-13 03:53:00